TimeEST,TemperatureF,Dew PointF,Humidity,Sea Level PressureIn,VisibilityMPH,Wind Direction,Wind SpeedMPH,Gust SpeedMPH,PrecipitationIn,Events,Conditions,WindDirDegrees,DateUTC
12:58 AM,62.1,60.1,93,30.17,10.0,Calm,Calm,-,N/A,,Mostly Cloudy,0,2013-01-14 05:58:00
1:58 AM,62.1,59.0,90,30.18,10.0,Calm,Calm,-,N/A,,Scattered Clouds,0,2013-01-14 06:58:00
2:58 AM,61.0,59.0,93,30.19,10.0,Calm,Calm,-,N/A,,Clear,0,2013-01-14 07:58:00
3:58 AM,60.1,59.0,96,30.17,10.0,Calm,Calm,-,N/A,,Clear,0,2013-01-14 08:58:00
4:58 AM,59.0,57.0,93,30.16,10.0,Calm,Calm,-,N/A,,Clear,0,2013-01-14 09:58:00
5:58 AM,60.1,57.9,93,30.17,10.0,Calm,Calm,-,N/A,,Partly Cloudy,0,2013-01-14 10:58:00
6:58 AM,60.1,57.9,93,30.18,10.0,South,3.5,-,N/A,,Scattered Clouds,190,2013-01-14 11:58:00
7:58 AM,62.1,60.1,93,30.19,10.0,South,3.5,-,N/A,,Clear,190,2013-01-14 12:58:00
8:58 AM,66.9,64.0,90,30.21,10.0,South,5.8,-,N/A,,Clear,190,2013-01-14 13:58:00
9:58 AM,72.0,64.9,78,30.22,10.0,SSW,8.1,-,N/A,,Clear,200,2013-01-14 14:58:00
10:58 AM,77.0,64.0,64,30.21,10.0,SW,6.9,-,N/A,,Clear,220,2013-01-14 15:58:00
11:58 AM,78.1,61.0,56,30.19,10.0,SSW,6.9,-,N/A,,Partly Cloudy,210,2013-01-14 16:58:00
12:58 PM,75.9,64.9,69,30.16,10.0,SE,11.5,-,N/A,,Clear,130,2013-01-14 17:58:00
1:58 PM,77.0,64.0,64,30.14,9.0,ESE,13.8,-,N/A,,Clear,120,2013-01-14 18:58:00
2:58 PM,75.9,64.0,67,30.15,10.0,SSE,13.8,-,N/A,,Clear,150,2013-01-14 19:58:00
3:58 PM,75.0,63.0,66,30.16,10.0,SE,12.7,-,N/A,,Clear,140,2013-01-14 20:58:00
4:58 PM,73.0,63.0,71,30.17,10.0,SSE,9.2,-,N/A,,Clear,150,2013-01-14 21:58:00
5:58 PM,70.0,63.0,78,30.18,10.0,SSE,9.2,-,N/A,,Clear,160,2013-01-14 22:58:00
6:58 PM,69.1,64.0,84,30.19,10.0,SSE,10.4,-,N/A,,Clear,160,2013-01-14 23:58:00
7:58 PM,69.1,64.0,84,30.18,10.0,SSE,9.2,-,N/A,,Clear,160,2013-01-15 00:58:00
8:58 PM,69.1,64.0,84,30.18,10.0,SSE,10.4,-,N/A,,Mostly Cloudy,160,2013-01-15 01:58:00
9:58 PM,69.1,64.0,84,30.18,10.0,South,8.1,-,N/A,,Scattered Clouds,180,2013-01-15 02:58:00
10:58 PM,66.9,64.0,90,30.18,10.0,SSE,5.8,-,N/A,,Clear,160,2013-01-15 03:58:00
11:58 PM,68.0,64.0,87,30.18,10.0,South,6.9,-,N/A,,Mostly Cloudy,180,2013-01-15 04:58:00